Regional Weather Roundup
Issued by NWS Little Rock, AR

Home | Current Version | Previous Version | Text Only | Print | Product List | Glossary Off
Versions: 1 2 3 4 5 6 7 8 9 10 11 12 13 14 15 16 17 18 19 20 21 22 23 24 25 26 27 28 29 30 31 32 33 34 35 36 37 38 39 40 41 42 43 44 45 46 47 48 49 50

000
ASUS44 KLZK 271505
RWRLZK

WEATHER ROUNDUP FOR ARKANSAS
NATIONAL WEATHER SERVICE LITTLE ROCK AR
900 AM CST TUE JAN 27 2015

NOTE: "FAIR" INDICATES FEW OR NO CLOUDS BELOW 12,000 FEET WITH NO
SIGNIFICANT WEATHER AND/OR OBSTRUCTIONS TO VISIBILITY.

ARZ001-003-010-029-271600-
NORTHWEST ARKANSAS

CITY           SKY/WX    TMP DP  RH WIND       PRES   REMARKS
FAYETTEVILLE   SUNNY     35  32  88 CALM      30.17R
FORT SMITH     SUNNY     46  37  71 W8        30.16R
HARRISON       SUNNY     47  34  60 W7        30.15R
BENTONVILLE    SUNNY     45  36  70 CALM      30.17R
ROGERS         SUNNY     43  35  73 CALM      30.16R
SILOAM SPGS    SUNNY     43  34  70 CALM      30.18R
HIGHFILL       SUNNY     47  36  65 CALM      30.16R
SPRINGDALE     SUNNY     41  36  81 CALM      30.18R
$$

ARZ004-005-016-271600-
NORTH CENTRAL ARKANSAS

CITY           SKY/WX    TMP DP  RH WIND       PRES   REMARKS
BATESVILLE     SUNNY     48  36  61 NW3       30.15R
FLIPPIN        SUNNY     43  34  70 CALM      30.15R
MTN HOME       SUNNY     44  35  70 CALM      30.14R
$$

ARZ040-041-271600-
WEST CENTRAL ARKANSAS

CITY           SKY/WX    TMP DP  RH WIND       PRES   REMARKS
MENA           SUNNY     50  41  71 CALM      30.15R
MOUNT IDA      MOSUNNY   44  38  79 CALM      30.11R
$$

ARZ009-017-025-026-028-271600-
NORTHEAST ARKANSAS

CITY           SKY/WX    TMP DP  RH WIND       PRES   REMARKS
JONESBORO      SUNNY     45  37  73 N7        30.12R
NEWPORT        SUNNY     47  37  68 NW8       30.16R
WALNUT RIDGE   SUNNY     45  36  70 NW9       30.14R
BLYTHEVILLE    SUNNY     45  39  79 N17       30.11R
NW BLYTHEVILLE SUNNY     43  37  81 N8        30.11R
$$

ARZ022-023-033-042-044-271600-
CENTRAL ARKANSAS

CITY           SKY/WX    TMP DP  RH WIND       PRES   REMARKS
LITTLE ROCK    SUNNY     53  37  54 N7        30.15R
N LITTLE ROCK  SUNNY     53  39  58 N6        30.15R
JACKSONVILLE   SUNNY     51  36  58 NW5       30.15R
SEARCY         SUNNY     50  38  63 N5        30.16R
HOT SPRINGS    SUNNY     45  38  76 CALM      30.14R
RUSSELLVILLE   SUNNY     42  37  82 CALM      30.15R
CLINTON        FAIR      37  32  81 CALM      30.16S
$$

ARZ036-271600-
EAST ARKANSAS

CITY           SKY/WX    TMP DP  RH WIND       PRES   REMARKS
WEST MEMPHIS   SUNNY     47  38  71 N7        30.11R
$$

ARZ050-053-066-070-073-271600-
SOUTHWEST ARKANSAS

CITY           SKY/WX    TMP DP  RH WIND       PRES   REMARKS
ARKADELPHIA    FAIR      43  39  85 CALM      30.15R
CAMDEN         SUNNY     45  37  76 CALM      30.14R
TEXARKANA      SUNNY     51  41  68 CALM      30.14R
EL DORADO      SUNNY     52  41  66 N3        30.14R
DE QUEEN       SUNNY     44  40  85 CALM      30.13R
$$

ARZ056-057-069-271600-
SOUTHEAST ARKANSAS

CITY           SKY/WX    TMP DP  RH WIND       PRES   REMARKS
PINE BLUFF     SUNNY     49  38  65 N5        30.14R
STUTTGART      SUNNY     50  39  66 N12       30.14R
MONTICELLO     SUNNY     53  38  56 VRB5      30.13R

$$




USA.gov is the U.S. government's official web portal to all federal, state and local government web resources and services.